[[{"header":{"parameterUnit":"m.s-1","parameterCategory":1,"la1":30.2991,"la2":30.254,"lo1":-89.0895,"lo2":-89.0444,"dx":0.0017,"dy":0.0017,"nx":28,"ny":28,"refTime":"2023-01-07T03:00:00:Z","depth":0,"parameterNumber":2,"parameterNumberName":"U-component_of_WINDS"},"data":[0,0,0,0,0,0,0,0,0,0,0,0,0,0,0,0,0,0,0,0,0,0,0,0,0,0,0,0,0,0,0,0,0,0,0,0,0,0,0,0,0,0,0,0,0,0,0,0,0,0,0,0,0,0,0,0,0,0,-1.6733,-1.6732,0,-1.6688,-1.6687,-1.6687,-1.6581,-1.6579,-1.6577,-1.6575,-1.6531,-1.6532,-1.6532,0,0,0,0,0,0,0,0,0,0,0,0,0,-1.6732,-1.6733,-1.6733,-1.6732,-1.6732,-1.6688,-1.6687,-1.6687,-1.6581,-1.6579,-1.6576,-1.6574,-1.653,-1.6532,-1.6533,0,0,0,0,0,0,0,0,0,0,0,0,0,-1.6715,-1.6733,-1.6733,-1.6674,-1.6668,-1.6688,-1.6687,-1.6686,-1.6582,-1.6579,-1.6575,-1.6572,-1.653,-1.6531,-1.6533,-1.6607,0,0,-1.6537,-1.6537,0,0,0,0,0,0,0,0,-1.6716,-1.6715,-1.6683,-1.6678,-1.6672,-1.6637,-1.6671,-1.666,-1.6583,-1.6615,-1.6574,-1.6571,-1.6569,-1.6567,-1.6566,-1.6605,-1.6603,-1.6537,-1.6538,-1.6538,-1.6539,0,0,0,0,0,0,0,-1.6717,-1.6716,-1.6715,-1.6683,-1.6676,-1.6651,-1.6645,-1.6668,-1.6611,-1.6612,-1.6604,-1.66,-1.6565,-1.6565,-1.6564,-1.6602,-1.6537,-1.6538,-1.6539,-1.6539,-1.6705,-1.6708,0,0,0,0,0,0,-1.6726,-1.6718,-1.6716,-1.6714,-1.6686,-1.6654,-1.6647,-1.6651,-1.661,-1.6601,-1.6603,-1.6595,-1.6564,-1.6562,-1.6562,-1.6648,-1.6538,-1.654,-1.654,-1.6701,-1.6705,-1.6709,0,0,0,0,0,0,-1.6727,-1.6727,-1.6718,-1.6714,-1.6711,-1.6657,-1.6663,-1.6652,-1.6651,-1.6604,-1.6593,-1.6613,-1.6561,-1.656,-1.6597,-1.6645,-1.654,-1.6541,-1.6697,-1.6702,-1.6707,-1.682,0,0,0,0,0,0,-1.6727,-1.6728,-1.6754,-1.6715,-1.6711,-1.6753,-1.6666,-1.6654,-1.6654,-1.6643,-1.661,-1.6601,-1.6559,-1.6596,-1.6599,-1.6645,-1.6542,-1.6692,-1.6699,-1.6706,-1.6812,-1.6829,-1.6843,0,0,0,0,0,-1.6727,-1.6787,-1.6756,-1.6756,-1.6743,-1.6756,-1.6754,-1.6703,-1.6658,-1.6685,-1.6655,-1.6602,-1.664,-1.6601,-1.6603,-1.665,-1.6689,-1.6697,-1.6705,-1.6805,-1.6826,-1.6843,0,0,0,0,0,0,-1.6833,-1.6781,-1.6745,-1.6794,-1.6781,-1.6738,-1.677,-1.6726,-1.6725,-1.6715,-1.6653,-1.6646,-1.6693,-1.6675,-1.6632,-1.6722,-1.6656,-1.6665,-1.6731,-1.6751,-1.6766,-1.6769,-1.6543,0,0,0,0,0,-1.6862,-1.6876,-1.683,-1.6878,-1.6873,-1.6824,-1.6827,-1.679,-1.6773,-1.6766,-1.6739,-1.6726,-1.6735,-1.6742,-1.6747,-1.681,-1.6802,-1.6844,-1.686,-1.6873,-1.6881,-1.6916,-1.6934,-1.6736,-1.6736,-1.6735,0,0,-1.6922,-1.6896,-1.6908,-1.6899,-1.6883,-1.6901,-1.6819,-1.684,-1.6853,-1.677,-1.6803,-1.6784,-1.6765,-1.6816,-1.6837,-1.6803,-1.6935,-1.6883,-1.6894,-1.6895,-1.6926,-1.6945,-1.6962,-1.6741,-1.674,-1.6739,0,0,-1.7041,-1.7021,-1.706,-1.7047,-1.7026,-1.6993,-1.7003,-1.6968,-1.6951,-1.6984,-1.6923,-1.6939,-1.6955,-1.6945,-1.6942,-1.7062,-1.7015,-1.7066,-1.7147,-1.7182,-1.7198,-1.7211,-1.7256,-1.7272,-1.7074,-1.7075,-1.7075,0,-1.7118,-1.7141,-1.7086,-1.7112,-1.7111,-1.7037,-1.7077,-1.7068,-1.705,-1.7052,-1.7014,-1.7034,-1.7016,-1.7066,-1.7096,-1.7095,-1.7106,-1.7068,-1.72,-1.7213,-1.7225,-1.7266,-1.7283,-1.7081,-1.708,-1.708,-1.7079,0,-1.7238,-1.7256,-1.729,-1.7275,-1.7278,-1.7311,-1.7263,-1.7273,-1.7236,-1.7209,-1.7245,-1.7222,-1.7223,-1.7232,-1.7195,-1.7277,-1.7257,-1.7211,-1.7143,-1.7251,-1.7289,-1.7305,-1.709,-1.7088,-1.7086,-1.7084,0,0,-1.7419,-1.7375,-1.7389,-1.7383,-1.7355,-1.7368,-1.74,-1.7401,-1.7412,-1.7403,-1.743,-1.7447,-1.7405,-1.7402,-1.7365,-1.7395,-1.7495,-1.7345,-1.7344,-1.7375,-1.7586,-1.7622,-1.7641,-1.7464,-1.7467,-1.7469,-1.7588,0,-1.7531,-1.7581,-1.7534,-1.7594,-1.7611,-1.7544,-1.7572,-1.7559,-1.7536,-1.7548,-1.7522,-1.7536,-1.7478,-1.7476,-1.7504,-1.7477,-1.7537,-1.7468,-1.7489,-1.7491,-1.7496,-1.7661,-1.7697,-1.7811,-1.7603,-1.7605,-1.7607,0,-1.7667,-1.7665,-1.7727,-1.77,-1.7705,-1.7731,-1.773,-1.7742,-1.7728,-1.7709,-1.7708,-1.7664,-1.7695,-1.763,-1.7674,-1.7629,-1.7635,-1.7624,-1.7628,-1.7627,-1.7555,-1.7666,-1.7845,-1.7863,-1.763,-1.7628,-1.7626,0,-1.7794,-1.7808,-1.7847,-1.7844,-1.7812,-1.7832,-1.782,-1.7803,-1.7808,-1.7808,-1.7811,-1.7815,-1.7817,-1.7822,-1.7781,-1.7737,-1.7832,-1.7763,-1.7818,-1.782,-1.784,-1.784,-1.8025,-1.7845,-1.7844,-1.7844,-1.7844,0,-1.7924,-1.7965,-1.7904,-1.7929,-1.7974,-1.7922,-1.7968,-1.7949,-1.7936,-1.7957,-1.7899,-1.7921,-1.7865,-1.7882,-1.785,-1.7893,-1.7894,-1.7881,-1.7872,-1.7886,-1.7888,-1.7889,-1.7881,-1.7849,-1.7848,-1.7847,-1.7846,0,-1.8073,-1.8034,-1.8073,-1.8041,-1.8034,-1.8069,-1.8042,-1.8065,-1.8038,-1.8066,-1.807,-1.8029,-1.8046,-1.8006,-1.8017,-1.7996,-1.8058,-1.8036,-1.8062,-1.8056,-1.8114,-1.811,-1.8306,-1.833,-1.8135,-1.8137,-1.8139,0,-1.8158,-1.8188,-1.816,-1.817,-1.8162,-1.8178,-1.8184,-1.8135,-1.8143,-1.8132,-1.8157,-1.8169,-1.8176,-1.8207,-1.8179,-1.8188,-1.8167,-1.8235,-1.8168,-1.8182,-1.8169,-1.8168,-1.8172,-1.8249,-1.8251,-1.8253,-1.8255,0,-1.8314,-1.8295,-1.8303,-1.8308,-1.8316,-1.8317,-1.8313,-1.8325,-1.8274,-1.8287,-1.8303,-1.8309,-1.8322,-1.8335,-1.8339,-1.8328,-1.8285,-1.8277,-1.829,-1.8305,-1.832,-1.8314,-1.8101,-1.8272,-1.827,-1.8269,-1.8268,-1.8268,-1.8434,-1.8459,-1.8444,-1.8458,-1.8451,-1.845,-1.8471,-1.8448,-1.8461,-1.8467,-1.8438,-1.8462,-1.8452,-1.8452,-1.8447,-1.8466,-1.8435,-1.8454,-1.8459,-1.8465,-1.8475,-1.8317,-1.8467,-1.8466,-1.8465,-1.8465,-1.8465,0,-1.8588,-1.8576,-1.8589,-1.8588,-1.8599,-1.8557,-1.8553,-1.8566,-1.8587,-1.8581,-1.859,-1.8612,-1.8626,-1.8601,-1.8612,-1.8632,-1.8613,-1.8637,-1.8635,-1.8634,-1.8501,-1.8489,-1.8653,-1.8653,-1.8653,-1.8653,-1.8653,-1.8653,-1.867,-1.8711,-1.869,-1.8728,-1.8716,-1.8739,-1.874,-1.8741,-1.8736,-1.8762,-1.8774,-1.8758,-1.8745,-1.8755,-1.8767,-1.876,-1.8767,-1.8799,-1.8784,-1.8661,-1.8643,-1.8625,-1.8613,-1.88,-1.88,-1.8915,-1.8916,-1.8917]},{"header":{"parameterUnit":"m.s-1","parameterCategory":1,"la1":30.2991,"la2":30.254,"lo1":-89.0895,"lo2":-89.0444,"dx":0.0017,"dy":0.0017,"nx":28,"ny":28,"refTime":"2023-01-07T03:00:00:Z","depth":0,"parameterNumber":3,"parameterNumberName":"V-component_of_WINDS"},"data":[0,0,0,0,0,0,0,0,0,0,0,0,0,0,0,0,0,0,0,0,0,0,0,0,0,0,0,0,0,0,0,0,0,0,0,0,0,0,0,0,0,0,0,0,0,0,0,0,0,0,0,0,0,0,0,0,0,0,1.8141,1.8141,0,1.8104,1.8104,1.8103,1.8119,1.8119,1.812,1.8121,1.8076,1.8074,1.8072,0,0,0,0,0,0,0,0,0,0,0,0,0,1.8219,1.8218,1.8141,1.8141,1.814,1.8104,1.8104,1.8103,1.8118,1.8119,1.8121,1.8122,1.8076,1.8074,1.8072,0,0,0,0,0,0,0,0,0,0,0,0,0,1.8184,1.8217,1.8141,1.8144,1.8144,1.8104,1.8104,1.8103,1.8118,1.8119,1.8121,1.8122,1.8077,1.8074,1.8071,1.8025,0,0,1.8062,1.806,0,0,0,0,0,0,0,0,1.8186,1.8181,1.8144,1.8144,1.8143,1.8118,1.8115,1.8077,1.8118,1.8128,1.8121,1.8123,1.8088,1.8084,1.8074,1.8023,1.8021,1.8062,1.806,1.8058,1.8057,0,0,0,0,0,0,0,1.8188,1.8183,1.8126,1.8143,1.8143,1.8145,1.8141,1.8108,1.81,1.8127,1.8128,1.8124,1.8088,1.8077,1.8073,1.802,1.8062,1.8059,1.8057,1.8056,1.793,1.7928,0,0,0,0,0,0,1.8192,1.8185,1.8128,1.8125,1.8169,1.8142,1.8138,1.8124,1.8101,1.8099,1.8123,1.8125,1.8082,1.8077,1.8071,1.8016,1.8058,1.8055,1.8054,1.7931,1.7929,1.7928,0,0,0,0,0,0,1.8193,1.8187,1.8129,1.8155,1.8148,1.814,1.8124,1.8123,1.8112,1.8098,1.8096,1.8113,1.8082,1.8076,1.8037,1.8014,1.8054,1.8051,1.7933,1.7931,1.7929,1.7904,0,0,0,0,0,0,1.8196,1.8187,1.8171,1.8155,1.8147,1.8097,1.8122,1.8121,1.8107,1.811,1.8088,1.8086,1.8083,1.8042,1.8034,1.8011,1.8049,1.7935,1.7932,1.7929,1.7907,1.7901,1.7897,0,0,0,0,0,1.8198,1.8164,1.817,1.8163,1.8127,1.8096,1.8091,1.809,1.8106,1.8088,1.8079,1.8086,1.8019,1.8038,1.8029,1.8005,1.7936,1.7933,1.793,1.7909,1.7902,1.7897,0,0,0,0,0,0,1.8174,1.8162,1.8168,1.8128,1.8113,1.8098,1.8076,1.8083,1.8062,1.8064,1.8063,1.8058,1.8018,1.8007,1.8029,1.7959,1.7979,1.7974,1.7967,1.796,1.7955,1.7957,1.8046,0,0,0,0,0,1.8165,1.8143,1.8132,1.8097,1.809,1.8085,1.8071,1.8073,1.8056,1.8049,1.8037,1.8019,1.7994,1.7977,1.7952,1.7906,1.7901,1.7885,1.788,1.7876,1.7871,1.7845,1.7837,1.7917,1.7917,1.7917,0,0,1.8143,1.8134,1.812,1.8092,1.8081,1.8057,1.8079,1.8052,1.8033,1.8044,1.8007,1.7998,1.7978,1.7935,1.7916,1.7925,1.7848,1.7872,1.7868,1.7865,1.7841,1.7833,1.7826,1.7914,1.7915,1.7915,0,0,1.8092,1.8084,1.8054,1.8043,1.8027,1.8024,1.8017,1.8002,1.7997,1.7961,1.7968,1.7945,1.7902,1.7887,1.7873,1.7819,1.7824,1.7811,1.7783,1.7758,1.7752,1.7746,1.7726,1.7718,1.7806,1.7806,1.7806,0,1.8067,1.8033,1.8037,1.801,1.7997,1.801,1.7978,1.7967,1.7942,1.7932,1.7944,1.7891,1.7878,1.7832,1.7819,1.7808,1.7798,1.7812,1.7753,1.7747,1.7742,1.7722,1.7715,1.7805,1.7805,1.7805,1.7805,0,1.8003,1.7979,1.7956,1.7936,1.792,1.7891,1.7889,1.7873,1.7876,1.7872,1.7834,1.782,1.7793,1.7782,1.7784,1.7736,1.7743,1.7754,1.7774,1.7733,1.7714,1.7707,1.7802,1.7803,1.7804,1.7804,0,0,1.7933,1.7917,1.7908,1.7899,1.7883,1.7863,1.7835,1.7811,1.7797,1.778,1.7755,1.7719,1.773,1.7714,1.7715,1.7693,1.765,1.7707,1.7706,1.7695,1.7595,1.7586,1.7577,1.7654,1.7653,1.7652,1.7596,0,1.788,1.7832,1.7835,1.7789,1.7766,1.7779,1.7753,1.774,1.7735,1.7713,1.7707,1.7681,1.7698,1.7689,1.7668,1.7659,1.7629,1.7664,1.7628,1.7627,1.7631,1.7567,1.7557,1.7505,1.7589,1.7588,1.7587,0,1.7811,1.7794,1.7747,1.7735,1.7725,1.7703,1.7682,1.7662,1.7647,1.7645,1.7629,1.7633,1.7602,1.7626,1.7582,1.7605,1.7591,1.7585,1.7583,1.7578,1.7603,1.7559,1.7489,1.7481,1.7576,1.7577,1.7578,0,1.7763,1.7729,1.7696,1.7688,1.7674,1.7658,1.7651,1.7637,1.7623,1.7604,1.7595,1.7571,1.7558,1.7539,1.7537,1.7554,1.7492,1.7515,1.7488,1.7488,1.7472,1.7473,1.7397,1.7466,1.7466,1.7467,1.7467,0,1.7702,1.7672,1.7675,1.7654,1.7621,1.7625,1.7591,1.7585,1.7573,1.755,1.7559,1.7537,1.7536,1.7513,1.751,1.7474,1.7468,1.7464,1.7463,1.7462,1.7463,1.7451,1.7454,1.7464,1.7465,1.7465,1.7466,0,1.7642,1.7643,1.7608,1.7599,1.7596,1.7571,1.7562,1.7541,1.7539,1.751,1.7503,1.7497,1.7471,1.7467,1.7435,1.7434,1.739,1.7393,1.7395,1.7395,1.7368,1.737,1.7281,1.7269,1.7347,1.7346,1.7346,0,1.7602,1.758,1.7569,1.7556,1.7549,1.7527,1.7514,1.7517,1.7502,1.7484,1.7465,1.744,1.742,1.7377,1.7368,1.7344,1.7346,1.7317,1.7342,1.7342,1.7344,1.7345,1.7342,1.7311,1.731,1.7309,1.7309,0,1.7531,1.7534,1.7515,1.7497,1.7482,1.7467,1.7453,1.7441,1.7443,1.7425,1.74,1.7385,1.7354,1.7328,1.7304,1.7294,1.7301,1.7302,1.7294,1.7291,1.7293,1.729,1.738,1.7303,1.7303,1.7304,1.7304,1.7304,1.7479,1.746,1.745,1.7429,1.742,1.7407,1.7388,1.7384,1.7364,1.734,1.7343,1.7315,1.73,1.7269,1.7258,1.7234,1.7243,1.7232,1.7229,1.7226,1.7223,1.7299,1.723,1.723,1.723,1.723,1.7231,0,1.7408,1.7403,1.7384,1.7365,1.7349,1.7361,1.7346,1.733,1.7306,1.7293,1.7274,1.7245,1.722,1.7211,1.7187,1.7169,1.7172,1.7163,1.7163,1.716,1.7216,1.7225,1.7161,1.7161,1.7161,1.7161,1.7161,1.7161,1.7368,1.7337,1.7338,1.7301,1.7295,1.7269,1.726,1.7248,1.7238,1.7205,1.7186,1.7181,1.7169,1.7145,1.7122,1.712,1.711,1.7099,1.7098,1.715,1.7156,1.7163,1.7171,1.7097,1.7097,1.7044,1.7043,1.7043]}]]